Showing default

METHANESAT, 59101

Orbit data source: Space-Track

METHANESAT, 59101 is a payload satellite owned by MethaneSAT (US) in SSO that was launched on Mon, 04 Mar 2024 UTC via an FALCON 9 launch vehicle from the Air Force Western Test Range (AFWTR). Payload-class satellites include a variety of spacecraft equipped with specific instruments for various scientific and technological missions. These include communications satellites like Starlink; space stations such as the ISS; scientific satellites like the Hubble; Earth observation satellites from companies like Planet Labs, Umbra, and HawkEye 360; GPS; miniature CubeSats for education and research; and military/defense satellites.

Loading next visibility...
Identifier
59101, 2024-043D
Orbit
SSO
Last TLE update
16 hours ago
Origin
Manufacturer
Blue Canyon
Mission
Operational Amateur Science
Bus & Motor
SATURN X-SAT, NANO-R3
Mass
362 kg wet, 326 kg dry
Launch date (UTC)
2024-03-04 (1 year ago)
Launch vehicle
FALCON 9
Launch site
Air Force Western Test Range (AFWTR)
Object type
Payload
Rocket body
Debris
Shape & HBR
Box + 2 Pan, 6 m
Radar Cross Section
2.251 m², Large (>1 m²)

Expand to show TLE details & history

TLE from 16 hours ago
0 METHANESAT
1 59101U 24043D   25128.63423202  .00004055  00000-0  37401-3 0  9991
2 59101  97.7949 254.9141 0009200 281.3357  78.6830 14.95194499 64141
Epoch: 2025-05-08T15:13Z
Definitive object data (Epoch: 2025-05-08T15:13:17.646Z)
Latitude
0.00001°
Longitude
159.88866°
Altitude
583.563 km
Speed
7.569 km/s
True Right ascension
16h 59m 39s
True Declination
0° 00' 00"
Sunlit
Object was in full shadow at TLE epoch
Visualization TLE readout
Latitude
-82.21356°
Longitude
-104.11995°
Altitude
603.792 km
Speed
7.56 km/s
Apparent Right ascension
02h 29m 19s
Apparent Declination
-63° 20' 53"
Sunlit
Object is in daylight
Visualization observer readout
Local Sidereal Time
15:01:35
Azimuth
171.069° S
Elevation
-66.082°
Doppler factor
1
Orbital elements
Apogee altitude
585.185 km
Perigee altitude
572.385 km
Semi-major axis
6,956.922 km
Eccentricity
0.00092
Inclination
97.7949°
RAAN
254.9141°
Arg. of periapsis
281.3357°
True anomaly
78.7864°
Mean anomaly
78.683°
Eccentric anomaly
78.7347°
Mean motion
3.7404 °/min
BSTAR
0.00037401
Orbital period
96.25 mins
Loading maneuver chart data...
Loading SW <> Apogee altitude chart data...
Loading historical data...
Loading historical data...
Loading historical data...
Loading historical data...
Loading historical data...
Loading historical data...
Loading historical data...

METHANESAT Visibility forecast

Observer location: undefined°, undefined°

Span
Click to sort rows by Start time (UTC) header in descending order
Start Az.
Max El. time (UTC)
Max El. Az.
Max El.
End time (UTC)
End Az.
4 mins2025-05-09 07:26:41.221Z102.205° ESE2025-05-09 07:28:41.221Z67.005° ENE18.438°2025-05-09 07:30:41.221Z32.071° NE
5 mins2025-05-09 09:01:41.221Z213.727° SW2025-05-09 09:03:41.221Z259.715° W28.058°2025-05-09 09:06:41.221Z320.907° NNW
5 mins2025-05-09 20:43:41.221Z48.836° ENE2025-05-09 20:45:41.221Z99.794° ESE29.633°2025-05-09 20:48:41.221Z159.184° S
|